Showing default

IRIDIUM 115, 42806

Orbit data source: Space-Track

IRIDIUM 115, 42806 is a payload satellite owned by Iridium (US) in LEO that was launched on Sun, 25 Jun 2017 UTC via an FALCON 9 launch vehicle from the Air Force Western Test Range (AFWTR). Payload-class satellites include a variety of spacecraft equipped with specific instruments for various scientific and technological missions. These include communications satellites like Starlink; space stations such as the ISS; scientific satellites like the Hubble; Earth observation satellites from companies like Planet Labs, Umbra, and HawkEye 360; GPS; miniature CubeSats for education and research; and military/defense satellites.

Loading next visibility...
Identifier
42806, 2017-039D
Orbit
LEO
Country
Flag of USUS
Related business
Manufacturer
OATK SSG Gilbert
Mission
Operational Commercial Communications
Bus & Motor
ELITEBUS, Unknown motor
Mass
860 kg wet, 700 kg dry
Launch date (UTC)
2017-06-25 (9 years ago)
Launch vehicle
FALCON 9
Launch site
Air Force Western Test Range (AFWTR)
Object type
Payload
Rocket body
Debris
Shape & HBR
Trap Box + 2 Pan, 4.8 m
Radar Cross Section
10.154 m², Large (>1 m²)

Expand to show TLE details & history
Last TLE update: 5 hours ago

TLE from 5 hours ago
0 IRIDIUM 115
1 42806U 17039D   26262.89382785  .00000072  00000-0  15482-4 0  9991
2 42806  86.4445 282.5010 0002292  86.3139 273.8324 14.43279606487927
Epoch: 2026-09-19T21:27Z
TLE epoch observation values (Epoch: 2026-09-19T21:27:06.726Z)
Latitude
-0.00001°
Longitude
-38.07285°
Altitude
750.639 km
Speed
7.479 km/s
True Right ascension
18h 50m 00s
True Declination
0° 00' 00"
Sunlit
Object was in daylight at epoch
Visualization orbit readout
Latitude
Unknown
Longitude
Unknown
Altitude
Unknown
Speed
Unknown
Apparent Right ascension
Unknown
Apparent Declination
Unknown
Sunlit
N/A
Visualization observer readout
Local Sidereal Time
19:05:53
Azimuth
Unknown
Elevation
Unknown
Doppler factor
Unknown
Orbital elements
Apogee altitude
746.266 km
Perigee altitude
743.001 km
Semi-major axis
7,122.771 km
Eccentricity
0.00023
Inclination
86.4445°
RAAN
282.501°
Arg. of periapsis
86.3139°
True anomaly
273.80619°
Mean anomaly
273.8324°
Eccentric anomaly
273.8193°
Mean motion
3.61052 °/min
Orbital period
99.71 mins
BSTAR
0.000015482
Loading maneuver chart data...
Computing Atmospheric mass density...
Loading historical data...
Loading historical data...
Loading historical data...
Loading historical data...
Loading historical data...
Loading historical data...
Loading historical data...

Documentation

Showing up to 5 results
|